| Record Date MM/DD/YYYY | Record Time HH:MM:SS | Record Julian Date NNN day of the year | Air Temperature Max (Degrees Fahrenheit F) | Time Max Air Temperature HH:MM:SS This is the time of max air temp for the prior hour interval listed for record [Time]. | Air Temperature Min (Degrees Fahrenheit F) | Time Min Air Temperature HH:MM:SS This is the time of min air temp for the prior hour interval listed for record [Time]. | Air Temperature Observed (Degrees Fahrenheit F) This is an instantaneous reading at the record [Time]. | Relative Humidity Max (Percent) | Time Max Relative Humidity HH:MM:SS This is the time of max relative humidity for the prior hour interval listed for record [Time]. | Relative Humidity Min (Percent) | Time Min Relative Humidity HH:MM:SS This is the time of min relative humidity for the prior hour interval listed for record [Time]. | Relative Humidity Observed (Percent) This is an instantaneous reading at the record [Time]. | Precipitation (Inches n.nn) rain fall that occurred during the prior hour interval listed for record [Time]. | Wind Speed (Miles Per Hour) Resultant Speed that occurred during the prior hour interval listed for record [Time]. | Wind Direction (Degrees) Resultant Direction that occurred during the prior hour interval listed for record [Time]. | Solar Radiation (Langley's) that occurred during the prior hour interval listed for record [Time]. | Soil Temperature Average at 2 inch depth (Degrees Fahrenheit F) that occurred during the prior hour interval listed for record [Time]. | Soil Temperature Observed at 2 inch depth (Degrees Fahrenheit F) This is an instantaneous reading at the record [Time]. | Soil Temperature Average at 4 inch depth (Degrees Fahrenheit F) that occurred during the prior hour interval listed for record [Time]. | Soil Temperature Observed at 4 inch depth (Degrees Fahrenheit F) This is an instantaneous reading at the record [Time]. |
|---|---|---|---|---|---|---|---|---|---|---|---|---|---|---|---|---|---|---|---|---|
| 08/30/2026 | 0:00:00 | 242 | -148 | 23:00:00 | -148 | 23:00:00 | -148 | 23:00:00 | 23:00:00 | -100 | 0 | 0.1 | 286 | 0 | 78 | 78 | 80 | 79 | ||
| 08/30/2026 | 1:00:00 | 242 | -148 | 0:00:00 | -148 | 0:00:00 | -148 | 0:00:00 | 0:00:00 | -100 | 0 | 0.0 | 0 | 0 | 78 | 77 | 79 | 79 | ||
| 08/30/2026 | 2:00:00 | 242 | -148 | 1:00:00 | -148 | 1:00:00 | -148 | 1:00:00 | 1:00:00 | -100 | 0 | 0.0 | 0 | 0 | 77 | 77 | 79 | 79 | ||
| 08/30/2026 | 3:00:00 | 242 | -148 | 2:00:00 | -148 | 2:00:00 | -148 | 2:00:00 | 2:00:00 | -100 | 0 | 0.2 | 16 | 0 | 77 | 77 | 78 | 78 | ||
| 08/30/2026 | 4:00:00 | 242 | -148 | 3:00:00 | -148 | 3:00:00 | -148 | 3:00:00 | 3:00:00 | -100 | 0 | 0.2 | 14 | 0 | 76 | 76 | 78 | 78 | ||
| 08/30/2026 | 5:00:00 | 242 | -148 | 4:00:00 | -148 | 4:00:00 | -148 | 4:00:00 | 4:00:00 | -100 | 0 | 1.1 | 346 | 0 | 76 | 76 | 78 | 78 | ||
| 08/30/2026 | 6:00:00 | 242 | -148 | 5:00:00 | -148 | 5:00:00 | -148 | 5:00:00 | 5:00:00 | -100 | 0 | 0.5 | 314 | 0 | 76 | 76 | 78 | 77 | ||
| 08/30/2026 | 7:00:00 | 242 | -148 | 6:00:00 | -148 | 6:00:00 | -148 | 6:00:00 | 6:00:00 | -100 | 0 | 1.1 | 35 | 4 | 76 | 76 | 77 | 77 | ||
| 08/30/2026 | 8:00:00 | 242 | -148 | 7:00:00 | -148 | 7:00:00 | -148 | 7:00:00 | 7:00:00 | -100 | 0 | 1.4 | 184 | 30 | 76 | 76 | 77 | 77 | ||
| 08/30/2026 | 9:00:00 | 242 | -148 | 8:00:00 | -148 | 8:00:00 | -148 | 8:00:00 | 8:00:00 | -100 | 0 | 2.4 | 148 | 47 | 77 | 78 | 77 | 78 | ||
| 08/30/2026 | 10:00:00 | 242 | -148 | 9:00:00 | -148 | 9:00:00 | -148 | 9:00:00 | 9:00:00 | -100 | 0 | 3.4 | 168 | 60 | 78 | 79 | 78 | 78 | ||
| 08/30/2026 | 11:00:00 | 242 | -148 | 10:00:00 | -148 | 10:00:00 | -148 | 10:00:00 | 10:00:00 | -100 | 0 | 5.2 | 177 | 70 | 80 | 81 | 79 | 79 | ||
| 08/30/2026 | 12:00:00 | 242 | -148 | 11:00:00 | -148 | 11:00:00 | -148 | 11:00:00 | 11:00:00 | -100 | 0 | 5.6 | 189 | 73 | 82 | 83 | 79 | 80 | ||
| 08/30/2026 | 13:00:00 | 242 | -148 | 12:00:00 | -148 | 12:00:00 | -148 | 12:00:00 | 12:00:00 | -100 | 0 | 5.4 | 226 | 54 | 83 | 84 | 81 | 81 | ||
| 08/30/2026 | 14:00:00 | 242 | -148 | 13:00:00 | -148 | 13:00:00 | -148 | 13:00:00 | 13:00:00 | -100 | 0 | 3.4 | 219 | 57 | 84 | 84 | 81 | 82 | ||
| 08/30/2026 | 15:00:00 | 242 | -148 | 14:00:00 | -148 | 14:00:00 | -148 | 14:00:00 | 14:00:00 | -100 | 0 | 5.3 | 157 | 24 | 85 | 84 | 82 | 82 | ||
| 08/30/2026 | 16:00:00 | 242 | -148 | 15:00:00 | -148 | 15:00:00 | -148 | 15:00:00 | 15:00:00 | -100 | 0 | 5.4 | 163 | 45 | 84 | 85 | 82 | 83 | ||
| 08/30/2026 | 17:00:00 | 242 | -148 | 16:00:00 | -148 | 16:00:00 | -148 | 16:00:00 | 16:00:00 | -100 | 0 | 5.1 | 187 | 15 | 85 | 85 | 83 | 83 | ||
| 08/30/2026 | 18:00:00 | 242 | -148 | 17:00:00 | -148 | 17:00:00 | -148 | 17:00:00 | 17:00:00 | -100 | 0 | 3.3 | 131 | 9 | 84 | 84 | 83 | 83 | ||
| 08/30/2026 | 19:00:00 | 242 | -148 | 18:00:00 | -148 | 18:00:00 | -148 | 18:00:00 | 18:00:00 | -100 | 0 | 1.7 | 144 | 1 | 84 | 84 | 83 | 83 | ||
| 08/30/2026 | 20:00:00 | 242 | -148 | 19:00:00 | -148 | 19:00:00 | -148 | 19:00:00 | 19:00:00 | -100 | 0 | 0.2 | 161 | 0 | 83 | 83 | 83 | 82 | ||
| 08/30/2026 | 21:00:00 | 242 | -148 | 20:00:00 | -148 | 20:00:00 | -148 | 20:00:00 | 20:00:00 | -100 | 0 | 0.0 | 157 | 0 | 82 | 82 | 82 | 82 | ||
| 08/30/2026 | 22:00:00 | 242 | -148 | 21:00:00 | -148 | 21:00:00 | -148 | 21:00:00 | 21:00:00 | -100 | 0 | 1.2 | 159 | 0 | 82 | 81 | 82 | 82 | ||
| 08/30/2026 | 23:00:00 | 242 | -148 | 22:00:00 | -148 | 22:00:00 | -148 | 22:00:00 | 22:00:00 | -100 | 0 | 0.7 | 154 | 0 | 81 | 81 | 81 | 81 | ||
| 08/31/2026 | 0:00:00 | 243 | -148 | 23:00:00 | -148 | 23:00:00 | -148 | 23:00:00 | 23:00:00 | -100 | 0 | 1.8 | 170 | 0 | 81 | 80 | 81 | 81 | ||
| 08/31/2026 | 1:00:00 | 243 | -148 | 0:00:00 | -148 | 0:00:00 | -148 | 0:00:00 | 0:00:00 | -100 | 0 | 0.5 | 146 | 0 | 80 | 80 | 81 | 81 | ||
| 08/31/2026 | 2:00:00 | 243 | -148 | 1:00:00 | -148 | 1:00:00 | -148 | 1:00:00 | 1:00:00 | -100 | 0 | 0.2 | 297 | 0 | 80 | 79 | 81 | 80 | ||
| 08/31/2026 | 3:00:00 | 243 | -148 | 2:00:00 | -148 | 2:00:00 | -148 | 2:00:00 | 2:00:00 | -100 | 0 | 0.6 | 260 | 0 | 79 | 79 | 80 | 80 | ||
| 08/31/2026 | 4:00:00 | 243 | -148 | 3:00:00 | -148 | 3:00:00 | -148 | 3:00:00 | 3:00:00 | -100 | 0 | 0.0 | 358 | 0 | 79 | 79 | 80 | 80 | ||
| 08/31/2026 | 5:00:00 | 243 | -148 | 4:00:00 | -148 | 4:00:00 | -148 | 4:00:00 | 4:00:00 | -100 | 0 | 0.0 | 0 | 0 | 79 | 78 | 80 | 79 | ||
| 08/31/2026 | 6:00:00 | 243 | -148 | 5:00:00 | -148 | 5:00:00 | -148 | 5:00:00 | 5:00:00 | -100 | 0 | 0.1 | 19 | 0 | 78 | 78 | 79 | 79 | ||
| 08/31/2026 | 7:00:00 | 243 | -148 | 6:00:00 | -148 | 6:00:00 | -148 | 6:00:00 | 6:00:00 | -100 | 0 | 0.6 | 135 | 4 | 78 | 78 | 79 | 79 | ||
| 08/31/2026 | 8:00:00 | 243 | -148 | 7:00:00 | -148 | 7:00:00 | -148 | 7:00:00 | 7:00:00 | -100 | 0 | 3.0 | 198 | 31 | 78 | 79 | 79 | 79 | ||
| 08/31/2026 | 9:00:00 | 243 | -148 | 8:00:00 | -148 | 8:00:00 | -148 | 8:00:00 | 8:00:00 | -100 | 0 | 4.0 | 228 | 47 | 79 | 80 | 79 | 79 | ||
| 08/31/2026 | 10:00:00 | 243 | -148 | 9:00:00 | -148 | 9:00:00 | -148 | 9:00:00 | 9:00:00 | -100 | 0 | 4.9 | 223 | 60 | 81 | 81 | 80 | 80 | ||
| 08/31/2026 | 11:00:00 | 243 | -148 | 10:00:00 | -148 | 10:00:00 | -148 | 10:00:00 | 10:00:00 | -100 | 0 | 3.9 | 238 | 65 | 82 | 83 | 80 | 81 | ||
| 08/31/2026 | 12:00:00 | 243 | -148 | 11:00:00 | -148 | 11:00:00 | -148 | 11:00:00 | 11:00:00 | -100 | 0 | 4.1 | 224 | 71 | 83 | 84 | 81 | 81 | ||
| 08/31/2026 | 13:00:00 | 243 | -148 | 12:00:00 | -148 | 12:00:00 | -148 | 12:00:00 | 12:00:00 | -100 | 0 | 4.4 | 208 | 52 | 84 | 85 | 82 | 82 | ||
| 08/31/2026 | 14:00:00 | 243 | -148 | 13:00:00 | -148 | 13:00:00 | -148 | 13:00:00 | 13:00:00 | -100 | 0 | 3.4 | 133 | 43 | 85 | 85 | 83 | 83 | ||
| 08/31/2026 | 15:00:00 | 243 | -148 | 14:00:00 | -148 | 14:00:00 | -148 | 14:00:00 | 14:00:00 | -100 | 0 | 2.1 | 184 | 45 | 85 | 85 | 83 | 83 | ||
| 08/31/2026 | 16:00:00 | 243 | -148 | 15:00:00 | -148 | 15:00:00 | -148 | 15:00:00 | 15:00:00 | -100 | 0 | 3.7 | 134 | 31 | 85 | 85 | 83 | 83 | ||
| 08/31/2026 | 17:00:00 | 243 | -148 | 16:00:00 | -148 | 16:00:00 | -148 | 16:00:00 | 16:00:00 | -100 | 0 | 3.0 | 135 | 26 | 86 | 86 | 84 | 84 | ||
| 08/31/2026 | 18:00:00 | 243 | -148 | 17:00:00 | -148 | 17:00:00 | -148 | 17:00:00 | 17:00:00 | -100 | 0 | 2.5 | 136 | 9 | 85 | 85 | 84 | 84 | ||
| 08/31/2026 | 19:00:00 | 243 | -148 | 18:00:00 | -148 | 18:00:00 | -148 | 18:00:00 | 18:00:00 | -100 | 0 | 1.2 | 141 | 1 | 85 | 84 | 84 | 84 | ||
| 08/31/2026 | 20:00:00 | 243 | -148 | 19:00:00 | -148 | 19:00:00 | -148 | 19:00:00 | 19:00:00 | -100 | 0 | 0.2 | 309 | 0 | 84 | 83 | 83 | 83 | ||
| 08/31/2026 | 21:00:00 | 243 | -148 | 20:00:00 | -148 | 20:00:00 | -148 | 20:00:00 | 20:00:00 | -100 | 0 | 0.2 | 269 | 0 | 83 | 83 | 83 | 83 | ||
| 08/31/2026 | 22:00:00 | 243 | -148 | 21:00:00 | -148 | 21:00:00 | -148 | 21:00:00 | 21:00:00 | -100 | 0 | 0.8 | 12 | 0 | 82 | 82 | 83 | 82 | ||
| 08/31/2026 | 23:00:00 | 243 | -148 | 22:00:00 | -148 | 22:00:00 | -148 | 22:00:00 | 22:00:00 | -100 | 0 | 0.7 | 24 | 0 | 82 | 82 | 82 | 82 | ||
| 09/01/2026 | 0:00:00 | 244 | -148 | 23:00:00 | -148 | 23:00:00 | -148 | 23:00:00 | 23:00:00 | -100 | 0 | 0.4 | 13 | 0 | 81 | 81 | 82 | 82 | ||
| 09/01/2026 | 1:00:00 | 244 | -148 | 0:00:00 | -148 | 0:00:00 | -148 | 0:00:00 | 0:00:00 | -100 | 0 | 0.2 | 22 | 0 | 81 | 81 | 82 | 81 | ||
| 09/01/2026 | 2:00:00 | 244 | -148 | 1:00:00 | -148 | 1:00:00 | -148 | 1:00:00 | 1:00:00 | -100 | 0 | 0.2 | 216 | 0 | 81 | 80 | 81 | 81 | ||
| 09/01/2026 | 3:00:00 | 244 | -148 | 2:00:00 | -148 | 2:00:00 | -148 | 2:00:00 | 2:00:00 | -100 | 0 | 0.0 | 296 | 0 | 80 | 80 | 81 | 81 | ||
| 09/01/2026 | 4:00:00 | 244 | -148 | 3:00:00 | -148 | 3:00:00 | -148 | 3:00:00 | 3:00:00 | -100 | 0 | 0.0 | 0 | 0 | 80 | 80 | 81 | 81 | ||
| 09/01/2026 | 5:00:00 | 244 | -148 | 4:00:00 | -148 | 4:00:00 | -148 | 4:00:00 | 4:00:00 | -100 | 0 | 0.0 | 248 | 0 | 80 | 79 | 80 | 80 | ||
| 09/01/2026 | 6:00:00 | 244 | -148 | 5:00:00 | -148 | 5:00:00 | -148 | 5:00:00 | 5:00:00 | -100 | 0 | 0.4 | 263 | 0 | 79 | 79 | 80 | 80 | ||
| 09/01/2026 | 7:00:00 | 244 | -148 | 6:00:00 | -148 | 6:00:00 | -148 | 6:00:00 | 6:00:00 | -100 | 0 | 1.0 | 99 | 4 | 79 | 79 | 80 | 80 | ||
| 09/01/2026 | 8:00:00 | 244 | -148 | 7:00:00 | -148 | 7:00:00 | -148 | 7:00:00 | 7:00:00 | -100 | 0 | 1.2 | 170 | 30 | 79 | 80 | 80 | 80 | ||
| 09/01/2026 | 9:00:00 | 244 | -148 | 8:00:00 | -148 | 8:00:00 | -148 | 8:00:00 | 8:00:00 | -100 | 0 | 2.5 | 240 | 46 | 80 | 81 | 80 | 80 | ||
| 09/01/2026 | 10:00:00 | 244 | -148 | 9:00:00 | -148 | 9:00:00 | -148 | 9:00:00 | 9:00:00 | -100 | 0 | 2.7 | 243 | 59 | 81 | 82 | 80 | 81 | ||
| 09/01/2026 | 11:00:00 | 244 | -148 | 10:00:00 | -148 | 10:00:00 | -148 | 10:00:00 | 10:00:00 | -100 | 0 | 2.3 | 236 | 50 | 83 | 83 | 81 | 81 | ||
| 09/01/2026 | 12:00:00 | 244 | -148 | 11:00:00 | -148 | 11:00:00 | -148 | 11:00:00 | 11:00:00 | -100 | 0 | 3.3 | 230 | 57 | 84 | 84 | 82 | 82 | ||
| 09/01/2026 | 13:00:00 | 244 | -148 | 12:00:00 | -148 | 12:00:00 | -148 | 12:00:00 | 12:00:00 | -100 | 0 | 2.6 | 279 | 52 | 85 | 85 | 82 | 83 | ||
| 09/01/2026 | 14:00:00 | 244 | -148 | 13:00:00 | -148 | 13:00:00 | -148 | 13:00:00 | 13:00:00 | -100 | 0 | 2.1 | 58 | 27 | 85 | 85 | 83 | 83 | ||
| 09/01/2026 | 15:00:00 | 244 | -148 | 14:00:00 | -148 | 14:00:00 | -148 | 14:00:00 | 14:00:00 | -100 | 0 | 2.2 | 38 | 35 | 85 | 85 | 83 | 83 | ||
| 09/01/2026 | 16:00:00 | 244 | -148 | 15:00:00 | -148 | 15:00:00 | -148 | 15:00:00 | 15:00:00 | -100 | 0 | 5.1 | 45 | 32 | 85 | 86 | 83 | 84 | ||
| 09/01/2026 | 17:00:00 | 244 | -148 | 16:00:00 | -148 | 16:00:00 | -148 | 16:00:00 | 16:00:00 | -100 | 0 | 2.7 | 16 | 17 | 85 | 85 | 84 | 84 | ||
| 09/01/2026 | 18:00:00 | 244 | -148 | 17:00:00 | -148 | 17:00:00 | -148 | 17:00:00 | 17:00:00 | -100 | 0 | 2.6 | 60 | 10 | 85 | 85 | 84 | 84 | ||
| 09/01/2026 | 19:00:00 | 244 | -148 | 18:00:00 | -148 | 18:00:00 | -148 | 18:00:00 | 18:00:00 | -100 | 0 | 0.8 | 8 | 1 | 85 | 84 | 84 | 84 | ||
| 09/01/2026 | 20:00:00 | 244 | -148 | 19:00:00 | -148 | 19:00:00 | -148 | 19:00:00 | 19:00:00 | -100 | 0 | 1.3 | 16 | 0 | 84 | 83 | 83 | 83 | ||
| 09/01/2026 | 21:00:00 | 244 | -148 | 20:00:00 | -148 | 20:00:00 | -148 | 20:00:00 | 20:00:00 | -100 | 0 | 0.5 | 11 | 0 | 83 | 83 | 83 | 83 | ||
| 09/01/2026 | 22:00:00 | 244 | -148 | 21:00:00 | -148 | 21:00:00 | -148 | 21:00:00 | 21:00:00 | -100 | 0 | 0.5 | 4 | 0 | 82 | 82 | 83 | 83 | ||
| 09/01/2026 | 23:00:00 | 244 | -148 | 22:00:00 | -148 | 22:00:00 | -148 | 22:00:00 | 22:00:00 | -100 | 0 | 0.5 | 287 | 0 | 82 | 82 | 82 | 82 | ||
| 09/02/2026 | 0:00:00 | 245 | -148 | 23:00:00 | -148 | 23:00:00 | -148 | 23:00:00 | 23:00:00 | -100 | 0 | 0.5 | 11 | 0 | 82 | 81 | 82 | 82 | ||
| 09/02/2026 | 1:00:00 | 245 | -148 | 0:00:00 | -148 | 0:00:00 | -148 | 0:00:00 | 0:00:00 | -100 | 0 | 0.3 | 9 | 0 | 81 | 81 | 82 | 82 | ||
| 09/02/2026 | 2:00:00 | 245 | -148 | 1:00:00 | -148 | 1:00:00 | -148 | 1:00:00 | 1:00:00 | -100 | 0 | 0.7 | 3 | 0 | 81 | 81 | 81 | 81 | ||
| 09/02/2026 | 3:00:00 | 245 | -148 | 2:00:00 | -148 | 2:00:00 | -148 | 2:00:00 | 2:00:00 | -100 | 0 | 1.2 | 23 | 0 | 80 | 80 | 81 | 81 | ||
| 09/02/2026 | 4:00:00 | 245 | -148 | 3:00:00 | -148 | 3:00:00 | -148 | 3:00:00 | 3:00:00 | -100 | 0 | 0.1 | 12 | 0 | 80 | 80 | 81 | 81 | ||
| 09/02/2026 | 5:00:00 | 245 | -148 | 4:00:00 | -148 | 4:00:00 | -148 | 4:00:00 | 4:00:00 | -100 | 0 | 0.7 | 279 | 0 | 80 | 80 | 81 | 80 | ||
| 09/02/2026 | 6:00:00 | 245 | -148 | 5:00:00 | -148 | 5:00:00 | -148 | 5:00:00 | 5:00:00 | -100 | 0 | 0.1 | 277 | 0 | 79 | 79 | 80 | 80 | ||
| 09/02/2026 | 7:00:00 | 245 | -148 | 6:00:00 | -148 | 6:00:00 | -148 | 6:00:00 | 6:00:00 | -100 | 0 | 0.4 | 242 | 4 | 79 | 79 | 80 | 80 | ||
| 09/02/2026 | 8:00:00 | 245 | -148 | 7:00:00 | -148 | 7:00:00 | -148 | 7:00:00 | 7:00:00 | -100 | 0 | 2.1 | 199 | 29 | 80 | 80 | 80 | 80 | ||
| 09/02/2026 | 9:00:00 | 245 | -148 | 8:00:00 | -148 | 8:00:00 | -148 | 8:00:00 | 8:00:00 | -100 | 0 | 2.1 | 266 | 45 | 80 | 81 | 80 | 80 | ||
| 09/02/2026 | 10:00:00 | 245 | -148 | 9:00:00 | -148 | 9:00:00 | -148 | 9:00:00 | 9:00:00 | -100 | 0 | 2.1 | 216 | 59 | 81 | 82 | 81 | 81 | ||
| 09/02/2026 | 11:00:00 | 245 | -148 | 10:00:00 | -148 | 10:00:00 | -148 | 10:00:00 | 10:00:00 | -100 | 0 | 2.0 | 353 | 65 | 83 | 84 | 81 | 81 | ||
| 09/02/2026 | 12:00:00 | 245 | -148 | 11:00:00 | -148 | 11:00:00 | -148 | 11:00:00 | 11:00:00 | -100 | 0 | 3.8 | 200 | 67 | 84 | 85 | 82 | 82 | ||
| 09/02/2026 | 13:00:00 | 245 | -148 | 12:00:00 | -148 | 12:00:00 | -148 | 12:00:00 | 12:00:00 | -100 | 0 | 3.9 | 171 | 53 | 85 | 86 | 83 | 83 | ||
| 09/02/2026 | 14:00:00 | 245 | -148 | 13:00:00 | -148 | 13:00:00 | -148 | 13:00:00 | 13:00:00 | -100 | 0 | 2.9 | 244 | 40 | 86 | 86 | 83 | 84 | ||
| 09/02/2026 | 15:00:00 | 245 | -148 | 14:00:00 | -148 | 14:00:00 | -148 | 14:00:00 | 14:00:00 | -100 | 0 | 3.2 | 215 | 50 | 86 | 86 | 84 | 84 | ||
| 09/02/2026 | 16:00:00 | 245 | -148 | 15:00:00 | -148 | 15:00:00 | -148 | 15:00:00 | 15:00:00 | -100 | 0 | 2.7 | 169 | 33 | 86 | 86 | 84 | 84 | ||
| 09/02/2026 | 17:00:00 | 245 | -148 | 16:00:00 | -148 | 16:00:00 | -148 | 16:00:00 | 16:00:00 | -100 | 0 | 2.5 | 227 | 25 | 86 | 86 | 84 | 84 | ||
| 09/02/2026 | 18:00:00 | 245 | -148 | 17:00:00 | -148 | 17:00:00 | -148 | 17:00:00 | 17:00:00 | -100 | 0 | 1.8 | 144 | 10 | 86 | 86 | 84 | 85 | ||
| 09/02/2026 | 19:00:00 | 245 | -148 | 18:00:00 | -148 | 18:00:00 | -148 | 18:00:00 | 18:00:00 | -100 | 0 | 1.5 | 31 | 1 | 86 | 85 | 84 | 84 | ||
| 09/02/2026 | 20:00:00 | 245 | -148 | 19:00:00 | -148 | 19:00:00 | -148 | 19:00:00 | 19:00:00 | -100 | 0 | 0.4 | 261 | 0 | 85 | 84 | 84 | 84 | ||
| 09/02/2026 | 21:00:00 | 245 | -148 | 20:00:00 | -148 | 20:00:00 | -148 | 20:00:00 | 20:00:00 | -100 | 0 | 1.3 | 265 | 0 | 84 | 84 | 84 | 84 | ||
| 09/02/2026 | 22:00:00 | 245 | -148 | 21:00:00 | -148 | 21:00:00 | -148 | 21:00:00 | 21:00:00 | -100 | 0 | 0.2 | 276 | 0 | 84 | 83 | 84 | 83 | ||
| 09/02/2026 | 23:00:00 | 245 | -148 | 22:00:00 | -148 | 22:00:00 | -148 | 22:00:00 | 22:00:00 | -100 | 0 | 0.8 | 148 | 0 | 83 | 83 | 83 | 83 | ||
| 09/03/2026 | 0:00:00 | 246 | -148 | 23:00:00 | -148 | 23:00:00 | -148 | 23:00:00 | 23:00:00 | -100 | 0 | 0.0 | 207 | 0 | 82 | 82 | 83 | 83 | ||
| 09/03/2026 | 1:00:00 | 246 | -148 | 0:00:00 | -148 | 0:00:00 | -148 | 0:00:00 | 0:00:00 | -100 | 0 | 0.0 | 0 | 0 | 82 | 82 | 82 | 82 | ||
| 09/03/2026 | 2:00:00 | 246 | -148 | 1:00:00 | -148 | 1:00:00 | -148 | 1:00:00 | 1:00:00 | -100 | 0 | 0.4 | 280 | 0 | 82 | 81 | 82 | 82 | ||
| 09/03/2026 | 3:00:00 | 246 | -148 | 2:00:00 | -148 | 2:00:00 | -148 | 2:00:00 | 2:00:00 | -100 | 0 | 0.1 | 237 | 0 | 81 | 81 | 82 | 82 | ||
| 09/03/2026 | 4:00:00 | 246 | -148 | 3:00:00 | -148 | 3:00:00 | -148 | 3:00:00 | 3:00:00 | -100 | 0 | 0.2 | 215 | 0 | 81 | 81 | 82 | 81 | ||
| 09/03/2026 | 5:00:00 | 246 | -148 | 4:00:00 | -148 | 4:00:00 | -148 | 4:00:00 | 4:00:00 | -100 | 0 | 0.6 | 360 | 0 | 81 | 80 | 81 | 81 | ||
| 09/03/2026 | 6:00:00 | 246 | -148 | 5:00:00 | -148 | 5:00:00 | -148 | 5:00:00 | 5:00:00 | -100 | 0 | 0.5 | 9 | 0 | 80 | 80 | 81 | 81 | ||
| 09/03/2026 | 7:00:00 | 246 | -148 | 6:00:00 | -148 | 6:00:00 | -148 | 6:00:00 | 6:00:00 | -100 | 0 | 0.5 | 141 | 4 | 80 | 80 | 81 | 81 | ||
| 09/03/2026 | 8:00:00 | 246 | -148 | 7:00:00 | -148 | 7:00:00 | -148 | 7:00:00 | 7:00:00 | -100 | 0 | 1.4 | 199 | 28 | 80 | 81 | 81 | 81 | ||
| 09/03/2026 | 9:00:00 | 246 | -148 | 8:00:00 | -148 | 8:00:00 | -148 | 8:00:00 | 8:00:00 | -100 | 0 | 2.5 | 299 | 44 | 81 | 82 | 81 | 81 | ||
| 09/03/2026 | 10:00:00 | 246 | -148 | 9:00:00 | -148 | 9:00:00 | -148 | 9:00:00 | 9:00:00 | -100 | 0 | 3.6 | 298 | 58 | 82 | 83 | 81 | 81 | ||
| 09/03/2026 | 11:00:00 | 246 | -148 | 10:00:00 | -148 | 10:00:00 | -148 | 10:00:00 | 10:00:00 | -100 | 0 | 2.9 | 287 | 67 | 83 | 84 | 82 | 82 | ||
| 09/03/2026 | 12:00:00 | 246 | -148 | 11:00:00 | -148 | 11:00:00 | -148 | 11:00:00 | 11:00:00 | -100 | 0 | 2.7 | 239 | 59 | 85 | 85 | 82 | 83 | ||
| 09/03/2026 | 13:00:00 | 246 | -148 | 12:00:00 | -148 | 12:00:00 | -148 | 12:00:00 | 12:00:00 | -100 | 0 | 3.5 | 216 | 75 | 86 | 86 | 83 | 84 | ||
| 09/03/2026 | 14:00:00 | 246 | -148 | 13:00:00 | -148 | 13:00:00 | -148 | 13:00:00 | 13:00:00 | -100 | 0 | 4.8 | 249 | 59 | 87 | 87 | 84 | 84 | ||
| 09/03/2026 | 15:00:00 | 246 | -148 | 14:00:00 | -148 | 14:00:00 | -148 | 14:00:00 | 14:00:00 | -100 | 0 | 3.2 | 200 | 40 | 87 | 87 | 85 | 85 | ||
| 09/03/2026 | 16:00:00 | 246 | -148 | 15:00:00 | -148 | 15:00:00 | -148 | 15:00:00 | 15:00:00 | -100 | 0 | 3.4 | 115 | 42 | 87 | 88 | 85 | 85 | ||
| 09/03/2026 | 17:00:00 | 246 | -148 | 16:00:00 | -148 | 16:00:00 | -148 | 16:00:00 | 16:00:00 | -100 | 0 | 4.2 | 84 | 18 | 87 | 87 | 85 | 85 | ||
| 09/03/2026 | 18:00:00 | 246 | -148 | 17:00:00 | -148 | 17:00:00 | -148 | 17:00:00 | 17:00:00 | -100 | 0 | 2.2 | 136 | 9 | 87 | 87 | 85 | 85 | ||
| 09/03/2026 | 19:00:00 | 246 | -148 | 18:00:00 | -148 | 18:00:00 | -148 | 18:00:00 | 18:00:00 | -100 | 0 | 2.1 | 126 | 1 | 86 | 86 | 85 | 85 | ||
| 09/03/2026 | 20:00:00 | 246 | -148 | 19:00:00 | -148 | 19:00:00 | -148 | 19:00:00 | 19:00:00 | -100 | 0 | 0.9 | 290 | 0 | 86 | 85 | 85 | 85 | ||
| 09/03/2026 | 21:00:00 | 246 | -148 | 20:00:00 | -148 | 20:00:00 | -148 | 20:00:00 | 20:00:00 | -100 | 0 | 0.8 | 142 | 0 | 85 | 84 | 85 | 84 | ||
| 09/03/2026 | 22:00:00 | 246 | -148 | 21:00:00 | -148 | 21:00:00 | -148 | 21:00:00 | 21:00:00 | -100 | 0 | 0.8 | 250 | 0 | 84 | 84 | 84 | 84 | ||
| 09/03/2026 | 23:00:00 | 246 | -148 | 22:00:00 | -148 | 22:00:00 | -148 | 22:00:00 | 22:00:00 | -100 | 0 | 0.2 | 279 | 0 | 84 | 83 | 84 | 84 | ||
| 09/04/2026 | 0:00:00 | 247 | -148 | 23:00:00 | -148 | 23:00:00 | -148 | 23:00:00 | 23:00:00 | -100 | 0 | 0.0 | 7 | 0 | 83 | 83 | 83 | 83 | ||
| 09/04/2026 | 1:00:00 | 247 | -148 | 0:00:00 | -148 | 0:00:00 | -148 | 0:00:00 | 0:00:00 | -100 | 0 | 0.2 | 275 | 0 | 83 | 82 | 83 | 83 | ||
| 09/04/2026 | 2:00:00 | 247 | -148 | 1:00:00 | -148 | 1:00:00 | -148 | 1:00:00 | 1:00:00 | -100 | 0 | 0.5 | 279 | 0 | 82 | 82 | 83 | 83 | ||
| 09/04/2026 | 3:00:00 | 247 | -148 | 2:00:00 | -148 | 2:00:00 | -148 | 2:00:00 | 2:00:00 | -100 | 0 | 0.3 | 204 | 0 | 82 | 82 | 82 | 82 | ||
| 09/04/2026 | 4:00:00 | 247 | -148 | 3:00:00 | -148 | 3:00:00 | -148 | 3:00:00 | 3:00:00 | -100 | 0 | 0.2 | 201 | 0 | 81 | 81 | 82 | 82 | ||
| 09/04/2026 | 5:00:00 | 247 | -148 | 4:00:00 | -148 | 4:00:00 | -148 | 4:00:00 | 4:00:00 | -100 | 0 | 0.2 | 358 | 0 | 81 | 81 | 82 | 82 | ||
| 09/04/2026 | 6:00:00 | 247 | -148 | 5:00:00 | -148 | 5:00:00 | -148 | 5:00:00 | 5:00:00 | -100 | 0 | 0.5 | 257 | 0 | 81 | 81 | 82 | 82 | ||
| 09/04/2026 | 7:00:00 | 247 | -148 | 6:00:00 | -148 | 6:00:00 | -148 | 6:00:00 | 6:00:00 | -100 | 0 | 0.7 | 151 | 3 | 81 | 81 | 81 | 81 | ||
| 09/04/2026 | 8:00:00 | 247 | -148 | 7:00:00 | -148 | 7:00:00 | -148 | 7:00:00 | 7:00:00 | -100 | 0 | 1.7 | 216 | 23 | 81 | 81 | 81 | 81 | ||
| 09/04/2026 | 9:00:00 | 247 | -148 | 8:00:00 | -148 | 8:00:00 | -148 | 8:00:00 | 8:00:00 | -100 | 0 | 1.8 | 298 | 42 | 81 | 82 | 81 | 81 | ||
| 09/04/2026 | 10:00:00 | 247 | -148 | 9:00:00 | -148 | 9:00:00 | -148 | 9:00:00 | 9:00:00 | -100 | 0 | 2.0 | 321 | 59 | 82 | 83 | 82 | 82 | ||
| 09/04/2026 | 11:00:00 | 247 | -148 | 10:00:00 | -148 | 10:00:00 | -148 | 10:00:00 | 10:00:00 | -100 | 0 | 2.3 | 84 | 65 | 84 | 84 | 82 | 82 | ||
| 09/04/2026 | 12:00:00 | 247 | -148 | 11:00:00 | -148 | 11:00:00 | -148 | 11:00:00 | 11:00:00 | -100 | 0 | 3.3 | 52 | 65 | 85 | 86 | 83 | 83 | ||
| 09/04/2026 | 13:00:00 | 247 | -148 | 12:00:00 | -148 | 12:00:00 | -148 | 12:00:00 | 12:00:00 | -100 | 0 | 3.7 | 135 | 64 | 86 | 87 | 84 | 84 | ||
| 09/04/2026 | 14:00:00 | 247 | -148 | 13:00:00 | -148 | 13:00:00 | -148 | 13:00:00 | 13:00:00 | -100 | 0 | 2.3 | 59 | 39 | 87 | 87 | 84 | 85 | ||
| 09/04/2026 | 15:00:00 | 247 | -148 | 14:00:00 | -148 | 14:00:00 | -148 | 14:00:00 | 14:00:00 | -100 | 0 | 3.3 | 5 | 38 | 87 | 87 | 85 | 85 | ||
| 09/04/2026 | 16:00:00 | 247 | -148 | 15:00:00 | -148 | 15:00:00 | -148 | 15:00:00 | 15:00:00 | -100 | 0 | 3.6 | 35 | 36 | 87 | 87 | 85 | 85 | ||
| 09/04/2026 | 17:00:00 | 247 | -148 | 16:00:00 | -148 | 16:00:00 | -148 | 16:00:00 | 16:00:00 | -100 | 0 | 3.0 | 74 | 22 | 87 | 87 | 85 | 85 | ||
| 09/04/2026 | 18:00:00 | 247 | -148 | 17:00:00 | -148 | 17:00:00 | -148 | 17:00:00 | 17:00:00 | -100 | 0 | 2.1 | 62 | 8 | 87 | 87 | 85 | 85 | ||
| 09/04/2026 | 19:00:00 | 247 | -148 | 18:00:00 | -148 | 18:00:00 | -148 | 18:00:00 | 18:00:00 | -100 | 0 | 0.5 | 176 | 1 | 86 | 86 | 85 | 85 | ||
| 09/04/2026 | 20:00:00 | 247 | -148 | 19:00:00 | -148 | 19:00:00 | -148 | 19:00:00 | 19:00:00 | -100 | 0 | 0.8 | 248 | 0 | 85 | 85 | 85 | 85 | ||
| 09/04/2026 | 21:00:00 | 247 | -148 | 20:00:00 | -148 | 20:00:00 | -148 | 20:00:00 | 20:00:00 | -100 | 0 | 1.3 | 284 | 0 | 85 | 84 | 84 | 84 | ||
| 09/04/2026 | 22:00:00 | 247 | -148 | 21:00:00 | -148 | 21:00:00 | -148 | 21:00:00 | 21:00:00 | -100 | 0 | 0.5 | 199 | 0 | 84 | 84 | 84 | 84 | ||
| 09/04/2026 | 23:00:00 | 247 | -148 | 22:00:00 | -148 | 22:00:00 | -148 | 22:00:00 | 22:00:00 | -100 | 0 | 0.3 | 18 | 0 | 83 | 83 | 84 | 84 | ||
| 09/05/2026 | 0:00:00 | 248 | -148 | 23:00:00 | -148 | 23:00:00 | -148 | 23:00:00 | 23:00:00 | -100 | 0 | 0.5 | 31 | 0 | 83 | 83 | 83 | 83 | ||
| 09/05/2026 | 1:00:00 | 248 | -148 | 0:00:00 | -148 | 0:00:00 | -148 | 0:00:00 | 0:00:00 | -100 | 0 | 0.3 | 303 | 0 | 82 | 82 | 83 | 83 | ||
| 09/05/2026 | 2:00:00 | 248 | -148 | 1:00:00 | -148 | 1:00:00 | -148 | 1:00:00 | 1:00:00 | -100 | 0 | 0.8 | 281 | 0 | 82 | 82 | 83 | 83 | ||
| 09/05/2026 | 3:00:00 | 248 | -148 | 2:00:00 | -148 | 2:00:00 | -148 | 2:00:00 | 2:00:00 | -100 | 0 | 0.4 | 205 | 0 | 82 | 82 | 82 | 82 | ||
| 09/05/2026 | 4:00:00 | 248 | -148 | 3:00:00 | -148 | 3:00:00 | -148 | 3:00:00 | 3:00:00 | -100 | 0 | 1.4 | 271 | 0 | 81 | 81 | 82 | 82 | ||
| 09/05/2026 | 5:00:00 | 248 | -148 | 4:00:00 | -148 | 4:00:00 | -148 | 4:00:00 | 4:00:00 | -100 | 0 | 0.3 | 245 | 0 | 81 | 81 | 82 | 82 | ||
| 09/05/2026 | 6:00:00 | 248 | -148 | 5:00:00 | -148 | 5:00:00 | -148 | 5:00:00 | 5:00:00 | -100 | 0 | 0.7 | 201 | 0 | 81 | 81 | 82 | 82 | ||
| 09/05/2026 | 7:00:00 | 248 | -148 | 6:00:00 | -148 | 6:00:00 | -148 | 6:00:00 | 6:00:00 | -100 | 0 | 0.8 | 156 | 5 | 81 | 81 | 81 | 81 | ||
| 09/05/2026 | 8:00:00 | 248 | -148 | 7:00:00 | -148 | 7:00:00 | -148 | 7:00:00 | 7:00:00 | -100 | 0 | 1.4 | 222 | 27 | 81 | 81 | 81 | 81 | ||
| 09/05/2026 | 9:00:00 | 248 | -148 | 8:00:00 | -148 | 8:00:00 | -148 | 8:00:00 | 8:00:00 | -100 | 0 | 2.6 | 291 | 36 | 82 | 82 | 81 | 82 | ||
| 09/05/2026 | 10:00:00 | 248 | -148 | 9:00:00 | -148 | 9:00:00 | -148 | 9:00:00 | 9:00:00 | -100 | 0 | 2.4 | 326 | 56 | 83 | 83 | 82 | 82 | ||
| 09/05/2026 | 11:00:00 | 248 | -148 | 10:00:00 | -148 | 10:00:00 | -148 | 10:00:00 | 10:00:00 | -100 | 0 | 3.8 | 0 | 66 | 84 | 85 | 82 | 83 | ||
| 09/05/2026 | 12:00:00 | 248 | -148 | 11:00:00 | -148 | 11:00:00 | -148 | 11:00:00 | 11:00:00 | -100 | 0 | 5.7 | 23 | 72 | 85 | 86 | 83 | 83 | ||
| 09/05/2026 | 13:00:00 | 248 | -148 | 12:00:00 | -148 | 12:00:00 | -148 | 12:00:00 | 12:00:00 | -100 | 0 | 4.8 | 60 | 60 | 87 | 87 | 84 | 84 | ||
| 09/05/2026 | 14:00:00 | 248 | -148 | 13:00:00 | -148 | 13:00:00 | -148 | 13:00:00 | 13:00:00 | -100 | 0 | 4.6 | 67 | 48 | 87 | 87 | 85 | 85 | ||
| 09/05/2026 | 15:00:00 | 248 | -148 | 14:00:00 | -148 | 14:00:00 | -148 | 14:00:00 | 14:00:00 | -100 | 0 | 5.1 | 46 | 44 | 88 | 88 | 85 | 85 | ||
| 09/05/2026 | 16:00:00 | 248 | -148 | 15:00:00 | -148 | 15:00:00 | -148 | 15:00:00 | 15:00:00 | -100 | 0 | 5.1 | 59 | 22 | 88 | 88 | 85 | 86 | ||
| 09/05/2026 | 17:00:00 | 248 | -148 | 16:00:00 | -148 | 16:00:00 | -148 | 16:00:00 | 16:00:00 | -100 | 0 | 6.3 | 46 | 18 | 87 | 87 | 86 | 86 | ||
| 09/05/2026 | 18:00:00 | 248 | -148 | 17:00:00 | -148 | 17:00:00 | -148 | 17:00:00 | 17:00:00 | -100 | 0 | 4.1 | 49 | 8 | 87 | 87 | 85 | 85 | ||
| 09/05/2026 | 19:00:00 | 248 | -148 | 18:00:00 | -148 | 18:00:00 | -148 | 18:00:00 | 18:00:00 | -100 | 0 | 0.6 | 290 | 0 | 86 | 86 | 85 | 85 | ||
| 09/05/2026 | 20:00:00 | 248 | -148 | 19:00:00 | -148 | 19:00:00 | -148 | 19:00:00 | 19:00:00 | -100 | 0 | 0.2 | 313 | 0 | 86 | 85 | 85 | 85 | ||
| 09/05/2026 | 21:00:00 | 248 | -148 | 20:00:00 | -148 | 20:00:00 | -148 | 20:00:00 | 20:00:00 | -100 | 0 | 0.7 | 278 | 0 | 85 | 85 | 85 | 85 | ||
| 09/05/2026 | 22:00:00 | 248 | -148 | 21:00:00 | -148 | 21:00:00 | -148 | 21:00:00 | 21:00:00 | -100 | 0 | 0.8 | 345 | 0 | 84 | 84 | 84 | 84 | ||
| 09/05/2026 | 23:00:00 | 248 | -148 | 22:00:00 | -148 | 22:00:00 | -148 | 22:00:00 | 22:00:00 | -100 | 0 | 1.4 | 313 | 0 | 84 | 84 | 84 | 84 | ||
| 09/06/2026 | 0:00:00 | 249 | -148 | 23:00:00 | -148 | 23:00:00 | -148 | 23:00:00 | 23:00:00 | -100 | 0 | 0.8 | 248 | 0 | 83 | 83 | 84 | 83 | ||
| 09/06/2026 | 1:00:00 | 249 | -148 | 0:00:00 | -148 | 0:00:00 | -148 | 0:00:00 | 0:00:00 | -100 | 0 | 0.6 | 162 | 0 | 83 | 83 | 83 | 83 | ||
| 09/06/2026 | 2:00:00 | 249 | -148 | 1:00:00 | -148 | 1:00:00 | -148 | 1:00:00 | 1:00:00 | -100 | 0 | 0.6 | 308 | 0 | 82 | 82 | 83 | 83 | ||
| 09/06/2026 | 3:00:00 | 249 | -148 | 2:00:00 | -148 | 2:00:00 | -148 | 2:00:00 | 2:00:00 | -100 | 0 | 1.7 | 16 | 0 | 82 | 82 | 83 | 83 | ||
| 09/06/2026 | 4:00:00 | 249 | -148 | 3:00:00 | -148 | 3:00:00 | -148 | 3:00:00 | 3:00:00 | -100 | 0 | 1.0 | 14 | 0 | 82 | 82 | 82 | 82 | ||
| 09/06/2026 | 5:00:00 | 249 | -148 | 4:00:00 | -148 | 4:00:00 | -148 | 4:00:00 | 4:00:00 | -100 | 0 | 1.3 | 308 | 0 | 81 | 81 | 82 | 82 | ||
| 09/06/2026 | 6:00:00 | 249 | -148 | 5:00:00 | -148 | 5:00:00 | -148 | 5:00:00 | 5:00:00 | -100 | 0 | 0.1 | 2 | 0 | 81 | 81 | 82 | 82 | ||
| 09/06/2026 | 7:00:00 | 249 | -148 | 6:00:00 | -148 | 6:00:00 | -148 | 6:00:00 | 6:00:00 | -100 | 0 | 1.1 | 25 | 4 | 81 | 81 | 82 | 82 | ||
| 09/06/2026 | 8:00:00 | 249 | -148 | 7:00:00 | -148 | 7:00:00 | -148 | 7:00:00 | 7:00:00 | -100 | 0 | 3.0 | 32 | 27 | 81 | 81 | 82 | 82 | ||
| 09/06/2026 | 9:00:00 | 249 | -148 | 8:00:00 | -148 | 8:00:00 | -148 | 8:00:00 | 8:00:00 | -100 | 0 | 3.4 | 61 | 45 | 82 | 82 | 82 | 82 | ||
| 09/06/2026 | 10:00:00 | 249 | -148 | 9:00:00 | -148 | 9:00:00 | -148 | 9:00:00 | 9:00:00 | -100 | 0 | 2.1 | 77 | 57 | 83 | 84 | 82 | 82 | ||
| 09/06/2026 | 11:00:00 | 249 | -148 | 10:00:00 | -148 | 10:00:00 | -148 | 10:00:00 | 10:00:00 | -100 | 0 | 3.3 | 336 | 66 | 84 | 85 | 82 | 83 | ||
| 09/06/2026 | 12:00:00 | 249 | -148 | 11:00:00 | -148 | 11:00:00 | -148 | 11:00:00 | 11:00:00 | -100 | 0 | 5.3 | 353 | 72 | 86 | 86 | 83 | 84 | ||
| 09/06/2026 | 13:00:00 | 249 | -148 | 12:00:00 | -148 | 12:00:00 | -148 | 12:00:00 | 12:00:00 | -100 | 0 | 5.0 | 346 | 69 | 87 | 87 | 84 | 84 | ||
| 09/06/2026 | 14:00:00 | 249 | -148 | 13:00:00 | -148 | 13:00:00 | -148 | 13:00:00 | 13:00:00 | -100 | 0 | 4.3 | 347 | 65 | 88 | 88 | 85 | 85 | ||
| Average | -148 | -148 | -148 | 0 | 0 | -100 | 0 | 1.84 | 20.28 | 82.67 | 82.72 | 82.19 | 82.22 | |||||||
| Total | 0 |